Weather in Belogostitsy

Russia / Yaroslavl Oblast     57°13′51″N   39°29′32″E
temp.,
°C
wind,
m/s
gust,
m/s
humid.,
%
clouds,
%
prec.,
mm/h
press.,
hPa
HPBL,
m
26 february, fri
fri2600:000w3496100 0.0 1011129
03:000s22100100 0.5 101051
06:00+1sse47100100 1.6 1007156
09:00+2sw49100100 5.3 1003222
12:00+2wsw513100100 4.3 999353
15:00+2w615100100 7.2 997543
18:00+2w7159495 0.1 996687
21:00+1wnw8149897 0.7 995741
27 february, sat
sat2700:00+1wnw71397100 0.6 995674
03:00−7nnw81389100 1.7 998553
06:00−12nnw61290100 0.1 1000600
09:00−13n61090100 0.1 1005506
12:00−11n588889 0.0 1007517
15:00−9n588789 0.0 1009556
18:00−12nnw3694100 0.0 1011120
21:00−14nnw369593 0.1 1013107
28 february, sun
sun2800:00−15nnw33952 0.0 101442
03:00−15nnw23957 0.0 101625
06:00−15nnw239665 0.0 101656
09:00−13n249474 0.1 1017245
12:00−9nnw238893 0.0 1017414
15:00−7nnw248996 0.1 1018530
18:00−7n2294100 0.1 101955
21:00−9nnw2295100 0.2 102123
1 march, mon
mon100:00−12nnw119698 0.0 102121
03:00−11sw119598 0.1 102321
06:00−12sw119598 0.0 102321
09:00−10sw229586 0.0 102458
12:00−5wsw238941 0.0 1025334
15:00−2wsw468840 0.0 1024535
18:00−5sw499335 0.0 1022167
21:00−1wsw5119368 0.0 1020540
2 march, tue
tue200:000wsw71396100 0.1 1017530
03:00+1w61398100 0.3 1015555
06:00+1wnw71298100 0.3 1013631
09:00+1nw71293100 0.4 1012854
12:00+1nw6118996 0.2 1013969
15:000nw7128998 0.2 10131003
18:000nw71387100 0.1 1014865
21:00−1nw71489100 0.1 1015976